When you browse on this site, cookies collect data to enhance your experience and personalize the content and advertising you see.
Visit our Privacy Policy to learn more. By continuing to use the site, you agree to this use of cookies and data.

Hourly Weather Hobart

Today, 10 August, Monday

Time Temperature Precipitation Wind Pressure Humidity
00:00 +3°C° 0 mm 1 mps 753 mmHg 94%
01:00 +3°C° 0 mm 1 mps 753 mmHg 94%
02:00 +2°C° 0 mm 1 mps 753 mmHg 94%
03:00 +2°C° 0 mm 1 mps 753 mmHg 95%
04:00 +1°C° 0 mm 1 mps 753 mmHg 93%
05:00 +1°C° 0 mm 1 mps 753 mmHg 93%
06:00 +1°C° 0 mm 1 mps 753 mmHg 93%
07:00 +1°C° 0 mm 1 mps 753 mmHg 93%
08:00 +3°C° 0 mm 1 mps 753 mmHg 83%
09:00 +6°C° 0 mm 1 mps 753 mmHg 73%
10:00 +7°C° 0 mm 2 mps 753 mmHg 61%
11:00 +10°C° 0 mm 1 mps 753 mmHg 55%
12:00 +11°C° 0 mm 1 mps 752 mmHg 50%
13:00 +13°C° 0 mm 1 mps 752 mmHg 44%
14:00 +13°C° 0 mm 1 mps 752 mmHg 48%
15:00 +12°C° 0 mm 1 mps 752 mmHg 53%
16:00 +11°C° 0 mm 1 mps 751 mmHg 58%
17:00 +9°C° 0 mm 1 mps 751 mmHg 68%
18:00 +7°C° 0 mm 1 mps 751 mmHg 79%
19:00 +5°C° 0 mm 1 mps 751 mmHg 90%
20:00 +4°C° 0 mm 1 mps 751 mmHg 91%
21:00 +4°C° 0 mm 1 mps 751 mmHg 92%
22:00 +4°C° 0 mm 1 mps 751 mmHg 93%
23:00 +4°C° 0 mm 1 mps 751 mmHg 92%

Tomorrow, 11 August, Tuesday

Time Temperature Precipitation Wind Pressure Humidity
00:00 +3°C° 0 mm 1 mps 751 mmHg 92%
01:00 +2°C° 0 mm 2 mps 750 mmHg 91%
02:00 +2°C° 0 mm 2 mps 750 mmHg 91%
03:00 +2°C° 0 mm 2 mps 750 mmHg 91%
04:00 +1°C° 0 mm 2 mps 749 mmHg 91%
05:00 +1°C° 0 mm 2 mps 749 mmHg 91%
06:00 +1°C° 0 mm 2 mps 749 mmHg 90%
07:00 +1°C° 0 mm 2 mps 749 mmHg 89%
08:00 +4°C° 0 mm 1 mps 749 mmHg 77%
09:00 +7°C° 0 mm 1 mps 749 mmHg 65%
10:00 +9°C° 0 mm 1 mps 748 mmHg 53%
11:00 +11°C° 0 mm 1 mps 748 mmHg 48%
12:00 +12°C° 0 mm 1 mps 747 mmHg 43%
13:00 +14°C° 0 mm 1 mps 747 mmHg 38%
14:00 +13°C° 0 mm 1 mps 747 mmHg 44%
15:00 +12°C° 0 mm 1 mps 746 mmHg 50%
16:00 +11°C° 0 mm 1 mps 746 mmHg 56%
17:00 +10°C° 0 mm 1 mps 746 mmHg 62%
18:00 +7°C° 0 mm 0 mps 746 mmHg 67%
19:00 +6°C° 0 mm 0 mps 746 mmHg 73%
20:00 +6°C° 0 mm 1 mps 746 mmHg 74%
21:00 +6°C° 0 mm 1 mps 746 mmHg 75%
22:00 +6°C° 0 mm 1 mps 746 mmHg 76%
23:00 +6°C° 0 mm 1 mps 746 mmHg 79%

Day after tomorrow, 12 August, Wednesday

Time Temperature Precipitation Wind Pressure Humidity
00:00 +5°C° 0 mm 2 mps 746 mmHg 82%
01:00 +4°C° 0 mm 2 mps 745 mmHg 84%
02:00 +5°C° 0 mm 2 mps 745 mmHg 84%
03:00 +5°C° 0 mm 2 mps 744 mmHg 83%
04:00 +5°C° 0 mm 2 mps 744 mmHg 83%
05:00 +5°C° 0 mm 2 mps 744 mmHg 83%
06:00 +6°C° 0 mm 2 mps 744 mmHg 84%
07:00 +6°C° 0 mm 2 mps 744 mmHg 84%
08:00 +7°C° 0 mm 2 mps 744 mmHg 79%
09:00 +9°C° 0 mm 2 mps 744 mmHg 73%
10:00 +12°C° 0 mm 2 mps 744 mmHg 68%
11:00 +12°C° 0 mm 2 mps 743 mmHg 65%
12:00 +13°C° 0 mm 2 mps 743 mmHg 63%
13:00 +13°C° 0 mm 2 mps 742 mmHg 60%
14:00 +13°C° 0 mm 2 mps 742 mmHg 64%
15:00 +13°C° 0 mm 1 mps 742 mmHg 68%
16:00 +13°C° 0 mm 1 mps 742 mmHg 71%
17:00 +11°C° 0 mm 1 mps 742 mmHg 77%
18:00 +10°C° 0 mm 1 mps 742 mmHg 83%
19:00 +9°C° 0 mm 1 mps 743 mmHg 89%
20:00 +9°C° 0 mm 1 mps 743 mmHg 89%
21:00 +9°C° 0 mm 1 mps 743 mmHg 89%
22:00 +9°C° 0 mm 1 mps 743 mmHg 89%
23:00 +8°C° 0 mm 1 mps 743 mmHg 91%

13 August, Thursday

Time Temperature Precipitation Wind Pressure Humidity
00:00 +8°C° 0 mm 1 mps 743 mmHg 93%
01:00 +7°C° 0 mm 1 mps 743 mmHg 94%
02:00 +7°C° 0 mm 1 mps 743 mmHg 94%
03:00 +7°C° 0 mm 1 mps 743 mmHg 95%
04:00 +7°C° 0 mm 1 mps 743 mmHg 95%
05:00 +6°C° 0 mm 0 mps 743 mmHg 94%
06:00 +6°C° 0 mm 0 mps 744 mmHg 93%
07:00 +6°C° 0 mm 0 mps 744 mmHg 92%
08:00 +8°C° 0 mm 0 mps 744 mmHg 88%
09:00 +9°C° 0 mm 0 mps 744 mmHg 84%
10:00 +10°C° 0 mm 0 mps 744 mmHg 80%
11:00 +12°C° 0 mm 1 mps 744 mmHg 76%
12:00 +14°C° 0 mm 1 mps 744 mmHg 72%
13:00 +15°C° 0 mm 1 mps 744 mmHg 68%
14:00 +14°C° 0.2 mm 1 mps 744 mmHg 76%
15:00 +13°C° 0.2 mm 1 mps 744 mmHg 83%
16:00 +12°C° 0.2 mm 1 mps 744 mmHg 91%
17:00 +12°C° 0.3 mm 1 mps 744 mmHg 93%
18:00 +11°C° 0.3 mm 1 mps 745 mmHg 95%
19:00 +10°C° 0.3 mm 1 mps 745 mmHg 97%
20:00 +10°C° 0 mm 1 mps 745 mmHg 97%
21:00 +9°C° 0 mm 2 mps 745 mmHg 96%
22:00 +8°C° 0 mm 2 mps 746 mmHg 96%
23:00 +8°C° 0 mm 2 mps 746 mmHg 96%

14 August, Friday

Time Temperature Precipitation Wind Pressure Humidity
00:00 +8°C° 0 mm 2 mps 745 mmHg 96%
01:00 +8°C° 0 mm 2 mps 745 mmHg 96%
02:00 +8°C° 0 mm 2 mps 745 mmHg 96%
03:00 +8°C° 0 mm 2 mps 745 mmHg 96%
04:00 +8°C° 0 mm 2 mps 745 mmHg 96%
05:00 +8°C° 0.2 mm 2 mps 745 mmHg 96%
06:00 +8°C° 0.2 mm 2 mps 745 mmHg 96%
07:00 +9°C° 0.2 mm 1 mps 746 mmHg 96%
08:00 +11°C° 0.1 mm 1 mps 746 mmHg 92%
09:00 +12°C° 0.1 mm 1 mps 746 mmHg 89%
10:00 +13°C° 0.1 mm 1 mps 746 mmHg 86%
11:00 +14°C° 0.2 mm 2 mps 746 mmHg 83%
12:00 +14°C° 0.2 mm 2 mps 745 mmHg 80%
13:00 +15°C° 0.2 mm 2 mps 745 mmHg 77%
14:00 +14°C° 0.6 mm 2 mps 745 mmHg 82%
15:00 +13°C° 0.6 mm 2 mps 745 mmHg 87%
16:00 +12°C° 0.6 mm 1 mps 745 mmHg 93%
17:00 +12°C° 0.8 mm 1 mps 745 mmHg 94%
18:00 +11°C° 0.8 mm 1 mps 745 mmHg 95%
19:00 +11°C° 0.8 mm 1 mps 745 mmHg 96%
20:00 +10°C° 0.1 mm 1 mps 745 mmHg 96%
21:00 +10°C° 0.1 mm 1 mps 745 mmHg 96%
22:00 +9°C° 0.1 mm 1 mps 746 mmHg 96%
23:00 +9°C° 0 mm 1 mps 745 mmHg 96%

15 August, Saturday

Time Temperature Precipitation Wind Pressure Humidity
00:00 +9°C° 0 mm 1 mps 745 mmHg 96%
01:00 +8°C° 0 mm 1 mps 745 mmHg 96%
02:00 +8°C° 0 mm 1 mps 745 mmHg 95%
03:00 +8°C° 0 mm 1 mps 744 mmHg 95%
04:00 +7°C° 0 mm 1 mps 744 mmHg 95%
05:00 +7°C° 0 mm 1 mps 744 mmHg 95%
06:00 +7°C° 0 mm 1 mps 744 mmHg 95%
07:00 +7°C° 0 mm 1 mps 744 mmHg 95%
08:00 +8°C° 0 mm 1 mps 744 mmHg 91%
09:00 +10°C° 0 mm 1 mps 744 mmHg 86%
10:00 +11°C° 0 mm 0 mps 744 mmHg 82%
11:00 +13°C° 0 mm 1 mps 744 mmHg 75%
12:00 +15°C° 0 mm 1 mps 743 mmHg 69%
13:00 +16°C° 0 mm 1 mps 743 mmHg 62%
14:00 +15°C° 0 mm 1 mps 743 mmHg 66%
15:00 +15°C° 0 mm 1 mps 742 mmHg 69%
16:00 +14°C° 0 mm 2 mps 742 mmHg 73%
17:00 +12°C° 0 mm 2 mps 742 mmHg 80%
18:00 +11°C° 0 mm 1 mps 743 mmHg 88%
19:00 +9°C° 0 mm 1 mps 743 mmHg 95%
20:00 +9°C° 0 mm 1 mps 743 mmHg 95%
21:00 +8°C° 0 mm 2 mps 743 mmHg 95%
22:00 +7°C° 0 mm 2 mps 743 mmHg 94%
23:00 +7°C° 0 mm 2 mps 743 mmHg 95%
Show more